Location:  
MeteoStar


Sort by weather type Sort by elevation Sort by visibility Sort from west to east north Sort from north to south Alphabetically Sort from strongest wind speed Sort from lowest to highest pressure Sort from highest to lowest dew point temperature Sort coolest temperatures to warmest Sort warm temperatures to coolest
 Metric

Current Observations for United Kingdom sorted from coolest to warmest

Benson01:50ZClear28 27101035.3SE 2 28206
Cairngorm02:00ZNot Avail.29 296W 39 Gusting to 48 124084
Stansted Airport01:20ZClear30 28201035.3W 2 30347
Topcliffe Royal Air Force Base 01:50ZMostly Cloudy30 28151034.2SSE 3 3091
Marham01:50ZNot Avail.30 2871034.2SSE 1 3075
Sennybridge02:00ZNot Avail.30 28151037.5E 1 301007
Lakenheath Royal Air Force Base01:56ZClear31 2781034.1CALM3132
Pershore02:00ZNot Avail.31 29151036.3SSE 1 31104
Farnborough01:20ZClear32 28121035.2SSW 2 32213
Norwich Weather Centre01:20ZClear32 32201034.1W 5 2745
Shobdon02:00ZNot Avail.32 31151036.4SSW 2 32324
Shoreham Airport02:00ZNot Avail.33 31141035.3N 5 286
Wainfleet02:00ZNot Avail.33 32101034.0W 6 279
Great Dun Fell02:00ZNot Avail.33 3320NW 17 222778
Manchester Airport01:20ZPartly Cloudy34 3451035.3N 2 34226
Yeovilton01:50ZNot Avail.34 3071036.2ENE 2 3475
East Midlands01:20ZNot Avail.34 32151034.3WSW 7 28308
Shawbury01:50ZClear34 32141035.3W 6 29249
Exeter Airport01:20ZNot Avail.34 3461036.2N 2 3498
Mildenhall Royal Air Force Base01:56ZClear34 3491034.5SSW 2 3432
Wattisham01:50ZMist34 3261034.3W 4 30285
Northolt01:50ZClear34 32111035.2CALM34124
Holbeach02:00ZNot Avail.34 3471034.4W 6 299
Eskdalemuir02:00ZNot Avail.34 33141034.1SSE 1 34793
Shoeburyness02:00ZNot Avail.34 3271035.0WNW 5 296
Thorney Island02:00ZNot Avail.34 31181035.5NNW 4 3013
Lough Fea02:00ZMist34 3371035.9CALM34738
Kenley02:00ZNot Avail.35 32131035.8W 2 35557
Herstmonceux02:00ZNot Avail.35 3381035.1NW 1 35170
Boscombe Down01:50ZClear36 30141035.3NW 7 30406
London / Gatwick Airport01:20ZNot Avail.36 32141035.2SW 1 36203
Lydd Airport 01:20ZClear36 3491035.1WNW 7 309
Humberside01:20ZClear36 3491034.2SSW 6 31101
Leeds And Bradford01:20ZNot Avail.36 3491033.5W 9 29682
Spadeadam01:50ZCloudy36 36151032.7W 9 291066
Brize Norton01:50ZNot Avail.36 30201035.3W 3 36288
Odiham01:50ZClear36 32111034.3SW 4 33403
Middle Wallop01:50ZClear36 30151035.3NW 4 33298
Coningsby Royal Air Force Base01:50ZNot Avail.36 34121034.1W 4 3322
Wittering01:50ZPartly Cloudy36 32101033.3WSW 4 33275
Linton-On-Ouse01:50ZClear36 34101033.1WNW 1 3652
Cranwell01:50ZClear36 32111034.3SW 7 30219
Spadeadam02:00ZNot Avail.36 35101033.8W 9 29935
Fylingdales02:00ZNot Avail.36 3125SW 5 32859
Capel Curig02:00ZNot Avail.36 34161036.8WSW 2 36708
Bingley02:00ZMist36 3561035WNW 4 33859
Donna Nook02:00ZNot Avail.36 33151033.6SW 9 2926
Weybourne02:00ZNot Avail.36 3571034SW 8 3068
Bedford02:00ZNot Avail.36 33121035.1WSW 5 32278
Langdon Bay02:00ZNot Avail.36 34131034.8NW 5 32383
Plymouth02:00ZNot Avail.37 3481036.1NE 2 37164
Chivenor02:00ZNot Avail.37 3591036.1E 4 3426
Cardiff-Wales Airport01:20ZClear37 3471035.2N 2 37219
Bristol / Lulsgate 01:20ZClear37 3071035.4ENE 5 33620
Luton Airport 01:20ZClear37 3271034.4SSW 4 34524
Pembrey Sands01:50ZClear37 36121036.1N 6 329
Fairford Royal Air Force Base01:56ZClear37 3261035.4WNW 3 37285
Aboyne02:00ZNot Avail.37 31301030.5WNW 1 37459
Glen Ogle02:00ZNot Avail.37 3625W 17 271850
Loftus Samos02:00ZNot Avail.37 34251033.0WSW 4 34190
Church Lawford02:00ZNot Avail.37 34101035.4WSW 4 34351
Little Rissington02:00ZNot Avail.37 34151035.5NNW 9 30705
High Wicombe Hqstc02:00ZNot Avail.37 32101035.8NW 3 37669
Dunkeswell Aerodrome02:00ZNot Avail.37 33111036.4NNE 3 37826
Lyneham02:00ZNot Avail.38 3091036.0N 2 38475
Aberporth02:00ZNot Avail.38 3581036.5W 1 38436
Nottingham Weather Centre02:00ZNot Avail.38 33101035WNW 7 33383
Lake Vyrnwy02:00ZNot Avail.38 33201036.1WNW 5 341181
Liscombe02:00ZNot Avail.38 35131036.5NNE 9 321141
Larkhill02:00ZNot Avail.38 32171036WNW 3 38433
Castlederg02:00ZNot Avail.38 3771035.3ENE 1 38167
Birmingham / Airport01:20ZNot Avail.39 3671035.3WSW 3 39324
Culdrose01:50ZNot Avail.39 37121035.3NE 5 35255
St Athan Royal Air Force Base01:50ZClear39 34121035.2SSE 1 39164
London / Heathrow Airport01:20ZClear39 3691035.1NW 1 3978
Leeming01:50ZMostly Cloudy39 34151033.2WNW 6 35131
Leconfield01:50ZMostly Cloudy39 34101033.1W 4 3619
Warcop Range02:00ZNot Avail.39 36201034NNE 3 39744
Redesdale02:00ZNot Avail.39 35251033.3W 3 39692
Bridlington Mrsc02:00ZNot Avail.39 34251033W 8 3349
Rhyl02:00ZNot Avail.39 35151035.8SW 4 36252
Milford Haven02:00ZNot Avail.39 35201036.5N 4 36144
Manston02:00ZNot Avail.40 3491034.8NW 4 37180
Charterhall02:00ZNot Avail.40 35251032.3WSW 4 37367
Camborne02:00ZClear40 3891036.3ENE 3 40285
Cardinham02:00ZNot Avail.40 35121036.0NE 4 37656
Glenanne02:00ZNot Avail.40 36201035.1NW 5 36528
Belfast / Aldergrove Airport01:20ZMostly Cloudy41 3971035.3S 3 41265
Liverpool Airport 01:20ZNot Avail.41 3971035.2W 8 3685
Newcastle 01:20ZClear41 36151032.3WSW 7 36265
Wick01:20ZClear41 39301028.2SW 4 38127
Leuchars01:50ZNot Avail.41 37171031.1W 7 3639
Waddington01:50ZNot Avail.41 34151033.2SW 8 36223
Loch Glascanoch02:00ZLight Showers41 38101030.3W 15 33869
Aviemore02:00ZHaze41 3861031.1SSW 3 41721
Inverbervie02:00ZNot Avail.41 36201030.8W 8 36439
Hawarden02:00ZNot Avail.42 36111035.5WNW 3 4232
Drumalbin02:00ZNot Avail.42 40111033.1WSW 11 36803
Keswick02:00ZNot Avail.42 38171034.5CALM42265
Shap02:00ZNot Avail.42 34301034.3W 2 42816
Portglenone02:00ZNot Avail.42 37171034.6S 1 42209
Guernsey Airport01:50ZNot Avail.43 39251035.3NNW 5 40334
Jersey Airport01:20ZClear43 39141035.2N 4 41275
London City Airport01:20ZClear43 36141035.1SW 3 4316
Aberdeen / Dyce01:20ZMostly Cloudy43 36301030.2WSW 5 40213
Inverness / Dalcross01:20ZMostly Cloudy43 39301030.1SSW 11 3729
Boulmer01:50ZMostly Cloudy43 36201032.2CALM4375
Lossiemouth01:50ZMostly Cloudy43 37201029.1SW 10 3742
Tulloch Bridge02:00ZClear43 35251032.5W 4 41777
Dundrennan02:00ZNot Avail.43 41251034WNW 5 40374
Carlisle02:00ZNot Avail.43 39201033.8N 4391
West Freugh02:00ZNot Avail.44 4281034.5W 6 4136
Tain Range02:00ZNot Avail.44 37301029.5WSW 10 3913
Lerwick02:00ZCloudy44 4371023.7WSW 17 36269
Altnaharra02:00ZClear44 38301028.8SSW 7 40265
Strathallan02:00ZNot Avail.44 38251032SW 9 39114
Saint Bees Head02:00ZNot Avail.44 43101034.5W 11 38406
Aberdaron02:00ZNot Avail.44 39191036.9W 6 41311
Mumbles02:00ZNot Avail.44 38201036.6NNE 8 39114
Saint Catherines Point02:00ZNot Avail.44 34201035NE 6 4152
Ballypatrick Forest02:00ZNot Avail.44 36251034.8W 11 38511
Belfast / Harbour01:20ZCloudy45 4171035.1SSW 4 4316
Blackpool Airport02:00ZNot Avail.45 429W 8 4132
Kirkwall Airport01:20ZCloudy45 41181027.2W 14 3968
Sumburgh Cape 01:20ZMostly Cloudy45 43181025.1W 15 3816
Glasgow Airport01:20ZLight Rain45 4141033.1WSW 11 3926
Edinburgh Airport01:20ZCloudy45 3941032.2WSW 8 41134
Benbecula01:20ZMostly Cloudy45 4341030.1SW 13 3919
Scatsa / Shetland Island01:20ZLight Rain45 4141024.2W 14 3972
Stornoway01:20ZMostly Cloudy45 41351029.1WSW 11 3929
Kinloss01:50ZMostly Cloudy45 39301030.1SW 8 4122
Baltasound02:00ZNot Avail.45 41131023.0W 13 3949
Fair Isle02:00ZClear45 4371025.5WSW 15 38187
Aultbea02:00ZLight Showers45 4271030.3SW 8 4136
Scilly; Saint MaryS02:00ZNot Avail.46 42101036.1NE 7 42101
Isle Of Man / Ronaldsway Airport01:50ZCloudy46 43151035.1N 3 4655
Valley01:50ZCloudy46 43111035.1SW 7 423
Prestwick Airport01:50ZClear46 4541034.1WSW 8 4265
Machrihanish02:00ZNot Avail.46 42101033.9WSW 12 4042
Sule Skerry02:00ZNot Avail.46 4271026.6WSW 23 Gusting to 29 3852
Prestwick Rnas02:00ZNot Avail.46 43101033.5WSW 10 4185
Crosby02:00ZNot Avail.46 4391035.1W 12 4026
Isle Of Portland02:00ZNot Avail.46 36201035.5NNE 11 41173
South Uist Range02:00ZNot Avail.47 42151030.5WSW 17 Gusting to 25 4032
Saint Helena Island01:50ZNot Avail.71 59201016ESE 13 711427